Airfield :
LOGIN :

Register | Disclaimer

   EN    FR    IT 

 










Legend :    VFR   Marginal VFR   IFR   Intensive IFR   Very Intensive IFR
Visi :
Ceiling :
>= 8 km
>= 3000ft
5 to 8 km
1000 to 3000 ft
1500m to 5 km
500 to 1000 ft
800 to 1500m
200 to 500 ft
< 800m
< 200 ft
Symbols :   Thunderstorms  Fog  Heavy snow  Heavy precipitations  Wind > 20 kt
SIGMETs :     Misc.  Thunderstorms  Icing  Turbulence  Mountain Waves  Volcanic Ashes







- Airport Elevation : 291 ft
- IATA code : ORY
- Download approach charts


LFPO - Paris-Orly

CURRENT METAR :
  • 192000Z 29003KT CAVOK 12/07 Q1023 NOSIG

EXPIRED METARs :
  • 191930Z 29001KT CAVOK 14/08 Q1023 NOSIG
  • 191900Z 31003KT CAVOK 14/08 Q1023 NOSIG
  • 191830Z 32005KT CAVOK 15/08 Q1023 NOSIG
  • 191800Z 31006KT CAVOK 15/09 Q1022 NOSIG
  • 191730Z 33007KT 310V010 9999 FEW033 SCT066 15/08 Q1022 NOSIG

TAF TAF LFPO
Valid from the 19 at 18:00 until the 21 at 00:00 UTC


191700Z 1918/2024 29005KT 9999 FEW040 SCT060
PROB40
TEMPO 1922/2008 0400 BCFG
PROB30
TEMPO 2003/2009 BKN003
ATIS : +33 1 49 75 65 80
No reported NOTAMs for that airfield.



MET'MAP, your aeronautical weather chart ! - Copyright ORBIFLY December 2007 - Disclaimer

ORBIFLY MET'MAP TEAM :

Programming & Development : Alexandra Zaïnal
Concept & Development : Baudouin d'Aumeries
Co-Development & Prog : Marc-Olivier Méhu
Technical & hardware support : Manuel Goepfert

Contact : metmap@orbifly.com




SOURCES & CREDITS :

   NOAA